Location: Wavehorne
(51.0500°N, 0.8333°E)
Time: 07:10:51
(UTC+00:00)

NOSS 2-2 (C) - Pass Details

Date: 01 November 2021
Orbit: 444 x 1761 km, 63.3° (Epoch: 06 December)

Event Time Altitude Azimuth Distance (km) Brightness Sun altitude
Rises 17:10:29 0° 188° (S) 2,459 7.0 -6.8°
Reaches altitude 10° 17:12:52 10° 171° (S) 1,564 5.7 -7.1°
Maximum altitude 17:15:29 21° 119° (ESE) 1,060 4.4 -7.5°
Enters shadow 17:18:11 10° 68° (ENE) 1,634 5.1 -8.0°
